This demonstration page uses our WeatherBlox Daily Observations layout. Learn more.

Left ArrowRight Arrow

40.92501, -98.34201

Hourly Observations for May 16, 2020

Temp ( °F °C ) Dew Point ( °F °C ) Humidity (%) Winds ( mph kmh ) Pressure ( in mb ) Visibility ( mi km ) Precip ( " mm )
12:53 am 00:53 Clear 62 16.7 46 7.8 56 56 SE 12 19 29.91 1013 10 16 0.00 0.00
1:53 am 01:53 Clear 60 15.6 47 8.3 62 62 ESE 8 13 29.94 1014 10 16 0.00 0.00
2:53 am 02:53 Clear 57 13.9 47 8.3 69 69 ENE 3 6 29.94 1014 10 16 0.00 0.00
3:53 am 03:53 Partly Cloudy 56 13.3 47 8.3 72 72 ENE 7 11 29.93 1014 10 16 0.00 0.00
4:01 am 04:01 Mostly Cloudy 56 13.3 47 8.3 72 72 E 6 9 29.94 1014 10 16 0.00 0.00
4:18 am 04:18 Mostly Cloudy 56 13.3 47 8.3 72 72 NE 7 11 29.94 1014 10 16 0.00 0.00
4:25 am 04:25 Mostly Clear 56 13.3 47 8.3 72 72 NNE 8 13 29.95 1014 10 16 0.00 0.00
4:53 am 04:53 Clear 55 12.8 46 7.8 72 72 NE 7 11 29.94 1014 10 16 0.00 0.00
5:53 am 05:53 Partly Cloudy 54 12.2 46 7.8 75 75 E 7 11 29.94 1014 10 16 0.00 0.00
6:35 am 06:35 Mostly Cloudy 55 12.8 47 8.3 74 74 NE 3 6 29.95 1014 10 16 0.00 0.00
6:48 am 06:48 Cloudy 55 13 48 9 77 77 E 3 6 29.95 1014 10 16 0.00 0.00
6:53 am 06:53 Cloudy 57 13.9 48 8.9 72 72 ENE 5 7 29.94 1014 10 16 0.00 0.00
7:53 am 07:53 Cloudy 58 14.4 50 10 75 75 E 8 13 29.95 1014 10 16 0.00 0.00
8:53 am 08:53 Cloudy 61 16.1 51 10.6 70 70 E 9 15 29.94 1014 10 16 0.00 0.00
9:10 am 09:10 Cloudy 61 16.1 52 11.1 72 72 ESE 8 13 29.93 1013 10 16 0.00 0.00
9:44 am 09:44 Cloudy 62 16.7 53 11.7 73 73 ESE 5 7 29.92 1013 10 16 0.00 0.00
9:53 am 09:53 Cloudy 62 16.7 53 11.7 73 73 E 5 7 29.95 1014 10 16 0.00 0.00
10:15 am 10:15 Cloudy 62 16.7 54 12.2 75 75 E 6 9 29.91 1013 8 13 0.00 0.00
10:22 am 10:22 Cloudy 63 17.2 54 12.2 73 73 E 6 9 29.91 1013 10 16 0.00 0.00
10:53 am 10:53 Cloudy 64 17.8 54 12.2 70 70 E 8 13 29.93 1014 10 16 0.00 0.00
11:08 am 11:08 Cloudy 63 17.2 54 12.2 73 73 ENE 7 11 29.90 1012 9 14 0.00 0.00
11:36 am 11:36 Cloudy with Light Rain 62 16.7 56 13.3 80 80 E 12 19 29.90 1013 5 8 0.00 0.00
11:53 am 11:53 Cloudy with Light Rain 61 16.1 56 13.3 84 84 E 13 20 29.93 1013 5 8 0.01 0.25
12:23 pm 12:23 Cloudy with Light Rain 61 16.1 57 13.9 87 87 ENE 6 9 29.92 1013 5 8 0.00 0.00
12:32 pm 12:32 Cloudy with Mist and Fog 61 16.1 57 13.9 87 87 E 3 6 29.92 1013 5 8 0.00 0.00
12:53 pm 12:53 Cloudy with Haze 61 16.1 56 13.3 84 84 Calm 29.94 1014 5 8 0.00 0.00
1:50 pm 13:50 Cloudy with Haze 63 17 57 14 83 83 NNE 5 7 29.89 1012 5 8 0.00 0.00
1:53 pm 13:53 Cloudy with Haze 62 16.7 57 13.9 84 84 NNE 3 6 29.93 1014 5 8 0.00 0.00
2:30 pm 14:30 Cloudy with Haze 64 17.8 58 14.4 81 81 NNE 3 6 29.89 1012 6 10 0.00 0.00
2:53 pm 14:53 Cloudy 65 18.3 57 13.9 76 76 NNW 3 6 29.93 1013 7 11 0.00 0.00
3:01 pm 15:01 Cloudy 65 18.3 57 13.9 76 76 N 3 6 29.88 1012 7 11 0.00 0.00
3:53 pm 15:53 Cloudy with Light Rain 63 17.2 58 14.4 84 84 NNW 10 17 29.93 1014 3 5 0.00 0.00
4:10 pm 16:10 Cloudy with Light Rain 62 16.7 57 13.9 84 84 NNW 12 19 29.89 1012 3 5 0.00 0.00
4:23 pm 16:23 Cloudy with Light Rain 62 16.7 58 14.4 86 86 NNW 10 17 29.89 1012 3 5 0.00 0.00
4:53 pm 16:53 Cloudy with Haze 64 17.8 58 14.4 81 81 N 10 17 29.91 1013 6 10 0.00 0.00
5:18 pm 17:18 Partly Cloudy 65 18.3 57 13.9 76 76 VRB 5 7 29.86 1011 8 13 0.00 0.00
5:44 pm 17:44 Mostly Cloudy 66 18.9 57 13.9 73 73 NW 13 20 29.86 1011 9 14 0.00 0.00
5:53 pm 17:53 Mostly Cloudy 65 18.3 56 13.3 73 73 NNW 10 17 29.91 1013 9 14 0.00 0.00
6:53 pm 18:53 Cloudy 63 17.2 55 12.8 76 76 N 12 19 29.92 1013 10 16 0.00 0.00
7:25 pm 19:25 Mostly Cloudy 61 16.1 55 12.8 81 81 N 14 22 29.90 1012 10 16 0.00 0.00
7:53 pm 19:53 Mostly Cloudy 60 15.6 54 12.2 80 80 N 15 24 29.94 1014 9 14 0.00 0.00
8:07 pm 20:07 Partly Cloudy 59 15 53 11.7 81 81 N 13 20 29.92 1013 8 13 0.00 0.00
8:41 pm 20:41 Cloudy 58 14.4 52 11.1 81 81 N 15 24 29.95 1014 8 13 0.00 0.00
8:53 pm 20:53 Mostly Cloudy 58 14.4 52 11.1 81 81 N 13 20 29.96 1015 7 11 0.00 0.00
9:25 pm 21:25 Cloudy 57 13.9 52 11.1 83 83 N 10 17 29.93 1014 8 13 0.00 0.00
9:53 pm 21:53 Partly Cloudy 54 12.2 50 10 87 87 N 7 11 29.96 1015 7 11 0.00 0.00
10:53 pm 22:53 Clear with Mist and Fog 52 11.1 48 8.9 86 86 N 9 15 29.98 1015 5 8 0.00 0.00
11:43 pm 23:43 Mostly Cloudy with Mist and Fog 53 11.7 49 9.4 86 86 NW 10 17 29.99 1015 5 8 0.00 0.00
11:53 pm 23:53 Mostly Cloudy with Mist and Fog 53 11.7 49 9.4 86 86 NNW 9 15 29.99 1016 5 8 0.00 0.00

Powered by AerisWeather